cliquez pour ajouter le site Runraid à vos favoris  English version (google)  Retour à l'accueil Ecrire à l'auteur du site Runraid : Michel Jourdan



Les prochaines courses


Les derniers résultats

cliquez pour visualiser la page complète relatant la chronologie des éruptions du Piton de la Fournaise
éruptions Piton de la Fournaise


Ile de La Réunion

 Diagonale des Fous 

Ecrire au créateur du site : Michel Jourdan
Contact


2017-01-22 - Course Tangue

Pour consulter le palmarès d'un coureur, un clic sur son nom !

Vous avez des remarques, corrections, ... sur ces résultats , un clic sur --> pour me transmettre toute information concernant les classements


Course Tangue - 2017 : classement des 656 finishers
Place Nom Temps Cat. Club Sexe Clt/cat.
Place Nom Temps Cat. Club Sexe Clt/cat.
1 LEBON JUANITO 02:09:32 SEM M 110
2 LEOCADIE RENE PAUL 02:18:18 V1M CAPP M 1 V1M 724
3 GRONDIN Geoffroy 02:18:39 SEM M 2 SEM 396
4 SANION Siurfa 02:19:09 SEM DENIV M 3 SEM 726
5 SAFAOUI MOHAMED 02:19:09 SEM TCSA M 4 SEM 111
6 CARCANY CEDRIC 02:20:54 SEM M 5 SEM 519
7 PAYET Anthony 02:22:22 SEM M 6 SEM 322
8 GIRARD Damien 02:25:57 SEM M 7 SEM 474
9 CADET JEAN MARIE 02:27:35 V1M M 2 V1M 336
10 PAYET JEAN PATRICE 02:28:33 V1M CAPOSS M 3 V1M 78
11 FONTAINE Fabrice 02:29:00 SEM M 8 SEM 670
12 MOUSSELET LOIC 02:31:13 SEM M 9 SEM 473
13 CLEMENT MATHIEU 02:33:10 ESM M 1 ESM 527
14 MAILLOT JEAN MARIE 02:33:12 V1M M 4 V1M 605
15 MOREL patrice 02:34:10 SEM M 10 SEM 174
16 MOREL mickael 02:34:10 SEM M 11 SEM 175
17 SERY JEAN PATRICE 02:34:13 SEM M 12 SEM 638
18 MOREL Luguy 02:34:43 V1M M 5 V1M 710
19 CONTRERAS BENOIT 02:34:55 SEM M 13 SEM 84
20 RIVIERE Franck 02:35:32 SEM M 14 SEM 227
21 PHALARIS Frederic 02:38:51 SEM M 15 SEM 326
22 FAYS Ulrich 02:38:54 SEM M 16 SEM 686
23 DANIERE ALBAN 02:39:28 SEM CASL M 17 SEM 28
24 COURTOIS Kevin 02:40:13 SEM M 18 SEM 684
25 VITRY dany 02:41:32 V2M ACSGS M 1 V2M 106
26 PELKA THOMAS 02:42:25 SEM M 19 SEM 623
27 ATHON Sylvain 02:42:58 V1M M 6 V1M 716
28 SMITH ALEXANDRE 02:42:59 SEM M 20 SEM 466
29 GROSSIN CHRISTOPHE 02:43:14 SEM AC ST LEU M 21 SEM 563
30 BRUYAS Camille 02:43:14 SEF F 1ere F 214
31 VIRAPIN Yohan 02:44:03 SEM M 22 SEM 188
32 PLANCHE Jean christophe 02:44:54 SEM M 23 SEM 412
33 BLARD cedric 02:45:31 SEM M 24 SEM 285
34 FONTAINE DANIEL JOSEPH 02:45:43 V2M CASL M 2 V2M 187
35 RIVERAIN Jeremy 02:45:58 SEM M 25 SEM 120
36 TESTAN Jonathan 02:46:21 SEM M 26 SEM 351
37 FONTAINE DANIEL 02:46:57 V2M CAPP M 3 V2M 553
38 BRUTIER TEDDY 02:48:39 V1M M 7 V1M 394
39 PASQUON Vincent 02:49:05 SEM M 27 SEM 341
40 BIGA Benjamin 02:49:15 V1M M 8 V1M 11
41 ROBERT JEAN NOE 02:49:20 SEM ESCDLM M 28 SEM 422
42 DAMOUR YANNICK 02:50:31 V1M M 9 V1M 531
43 BUREL CHRISTOPHE 02:51:09 SEM M 29 SEM 465
44 BLARD Emanuel 02:51:39 SEM M 30 SEM 714
45 BOYER Kevin 02:51:41 SEM RDB M 31 SEM 682
46 DUPIN Nicolas 02:52:06 SEM M 32 SEM 709
47 VICTOIRE Louis 02:52:38 V1M M 10 V1M 664
48 MERCHER BRYAN 02:53:03 ESM M 2 ESM 399
49 PAYET JANICK 02:53:21 V1M CASL M 11 V1M 622
50 CHOPINET JEAN IDRIS 02:53:22 V1M CTBP M 12 V1M 64
51 COINUS ROBIN 02:55:31 SEM M 33 SEM 528
52 VERGNES philippe 02:55:33 V1M M 13 V1M 279
53 COUDERC JEAN FRANCOIS 02:55:38 V1M I FILANCI M 14 V1M 259
54 HOARAU KENNY 02:56:13 JUM CAPP M 1 JUM 571
55 LEBASTARD ETIENNE 02:56:19 SEM M 34 SEM 592
56 ETHEVE JEAN MARIE 02:56:25 V2M M 4 V2M 547
57 PAYET yanis 02:56:36 V1M M 15 V1M 139
58 NAVEL REMI 02:56:56 SEM DA M 35 SEM 332
59 HOARAU CLEARY 02:57:22 JUM CAPP M 2 JUM 568
60 LAURET Christophe 02:57:29 SEM M 36 SEM 721
61 DOUCET Thomas 02:58:03 SEM M 37 SEM 380
62 SAMSORA Frederic 02:58:28 V1M STASA M 16 V1M 693
63 GRONDIN Ludovic 02:58:29 SEM RDB M 38 SEM 681
64 SINCERE pascal 02:58:29 V1M M 17 V1M 383
65 GRONDIN olivier 02:58:33 SEM M 39 SEM 245
66 BUDEL Loic 02:59:05 SEM M 40 SEM 179
67 RENCURET FABIEN 02:59:12 SEM M 41 SEM 92
68 BRUNET Nicolas 02:59:16 SEM M 42 SEM 400
69 LAM KAM matthias 02:59:38 SEM M 43 SEM 432
70 GONTHIER Joe 02:59:52 SEM M 44 SEM 719
71 BOTHEREL Joran 03:00:10 SEM M 45 SEM 365
72 TARISTAS Johnson 03:00:11 SEM M 46 SEM 389
73 LEOCADIE JEAN LOUIS 03:00:19 V2M CAPP M 5 V2M 283
74 SCHMITT MARCEL 03:01:14 SEM M 47 SEM 636
75 DALEAU XAVIER 03:01:31 SEM CAPP M 48 SEM 451
76 NIRLO Jean Stephane 03:02:10 V1M M 18 V1M 293
77 ROUGET FREDERIC 03:02:14 V1M CTBP M 19 V1M 57
78 ANGENARD FABRICE 03:02:24 SEM M 49 SEM 497
79 LEBON JACKY 03:02:28 V2M RDB M 6 V2M 337
80 RIVIERE Jacques 03:02:29 V2M M 7 V2M 152
81 RIVIERE alix 03:02:35 V1M M 20 V1M 153
82 TECHER Kevin 03:02:39 SEM M 50 SEM 333
83 MONTEGU LUDOVIC 03:03:08 SEM CASL M 51 SEM 611
84 SILBERSTEIN David 03:03:16 SEM M 52 SEM 118
85 SORRES FREDERIC 03:03:55 SEM RDB M 53 SEM 356
86 MULOT joseph johny 03:03:58 V1M M 21 V1M 9
87 GALTIER Chloe 03:03:58 ESF F 2eme F 348
88 TOURNEBOEUF ROMAIN 03:04:56 SEM M 54 SEM 649
89 FAURIE Francois 03:05:59 SEM M 55 SEM 415
90 GIGAN brice 03:06:28 SEM M 56 SEM 278
91 MYRTHE JIMMY 03:06:40 SEM M 57 SEM 616
92 BOURICE Wilfrid 03:06:58 SEM M 58 SEM 191
93 LEBRETON ISABELLE 03:06:58 SEF F 3eme F 595
94 MAROUVIN DOMINIQUE 03:06:59 V1M OUESTRAIL M 22 V1M 405
95 ROBERT JEAN ELIOT 03:07:00 V2M M 8 V2M 632
96 DE BALMANN YOANN 03:07:01 SEM M 59 SEM 367
97 MORIN DAMIEN 03:07:12 SEM M 60 SEM 455
98 GILLES Alexandre 03:07:49 SEM M 61 SEM 382
99 VICTOIRE Yves 03:08:20 V2M M 9 V2M 390
100 LEPERLIER GERARD ULYSSE 03:09:01 V1M M 23 V1M 477
101 ADIA FLORENT 03:09:19 SEM ACVSS M 62 SEM 494
102 LOUISE Jean Maurice 03:09:25 V1M M 24 V1M 667
103 HUET Luiggi 03:09:31 SEM M 63 SEM 284
104 GONTHIER philippe 03:09:54 V1M M 25 V1M 124
105 PICARD Johnny 03:09:56 SEM M 64 SEM 289
106 HOARAU Pascal 03:10:00 V2M M 10 V2M 687
107 PAYET Patrick 03:11:38 V1M M 26 V1M 327
108 RIVIERE ERIC 03:11:57 SEM ACSGS M 65 SEM 176
109 JEAN BAPTISTE Samuel 03:12:01 SEM M 66 SEM 678
110 KERBIRIOU Jean francois 03:12:07 SEM M 67 SEM 162
111 BOYER SERGE OLIVIER 03:12:32 SEM CASL M 68 SEM 264
112 BANDRABUR COLINE 03:12:48 SEF CAPOSS F 4 F - 3 SEF 290
113 FONTAINE Johnny 03:13:17 V2M M 11 V2M 388
114 KERBIDI eric 03:13:30 SEM M 69 SEM 141
115 BERTIL Giovanni 03:13:38 SEM M 70 SEM 90
116 NIOBE JOHAN 03:13:58 SEM M 71 SEM 620
117 RIVIERE Rosaire 03:14:01 V2M M 12 V2M 699
118 JOBERT CHRISTIAN 03:14:34 V3M AC ENTENTE M 1 V3M 413
119 JEAN BAPTISTE Patrick 03:14:47 V2M M 13 V2M 677
120 BEGUE CHRISTOPHER 03:15:16 SEM AAJM M 72 SEM 505
121 LE KHANH 03:15:23 V1M ACSP M 27 V1M 116
122 LAFARGE Romane 03:15:57 SEF F 5 F - 4 SEF 349
123 THOMIN JULIEN 03:16:42 SEM M 73 SEM 646
124 RETAILLEAU GUILLAUME 03:16:45 V1M OUESTRAIL M 28 V1M 321
125 FAUQUET olivier 03:16:52 SEM M 74 SEM 467
126 FLAMME JACQUES ANTOINE 03:16:55 SEM M 75 SEM 551
127 FRANC JIMMY 03:16:57 SEM M 76 SEM 257
128 GONTHIER Loic 03:17:02 SEM M 77 SEM 146
129 RIVIERE JEAN FREDERIC 03:17:31 SEM CASL M 78 SEM 246
130 BOYER Jerome 03:17:38 SEM M 79 SEM 600
131 GODERIS LOIC 03:17:39 SEM M 80 SEM 558
132 CARDINAEL Guillaume 03:17:44 SEM M 81 SEM 228
133 AUBERVAL jean bruno 03:18:02 V1M M 29 V1M 345
134 LEVENEUR RODOLPHE 03:18:24 ESM M 3 ESM 601
135 FONTAINE colette 03:19:00 V1F F 6 F - 1 V1F 75
136 ADRAS Jean Michel 03:19:00 V1M M 30 V1M 277
137 BOYER NICOLAS 03:19:20 SEM M 82 SEM 516
138 ORDONNEAU Julien 03:19:43 SEM M 83 SEM 180
139 ROUX AXEL 03:19:46 JUM M 3 JUM 634
140 PAYET Joel 03:19:58 SEM M 84 SEM 357
141 PAYET Olivier 03:19:58 V1M M 31 V1M 705
142 DUCHEMANN Christophe 03:20:03 SEM M 85 SEM 706
143 VANDEWALLE VIRGILE 03:20:22 SEM M 86 SEM 653
144 SEVERIN vincent luc 03:20:29 ESM M 4 ESM 490
145 FALKOWSKI mathieu 03:21:04 SEM M 87 SEM 487
146 ANGUILA Jordan 03:21:12 SEM M 88 SEM 663
147 CLAIRIVET DAMIEN 03:21:14 SEM M 89 SEM 471
148 CARDIN GUILLAUME 03:21:23 SEM M 90 SEM 294
149 RIOUAL Mathis 03:21:35 JUM M 4 JUM 224
150 PRADIGNAC Nicolas 03:21:48 SEM M 91 SEM 672
151 DINE Alexandre 03:21:48 SEM M 92 SEM 250
152 ENSEL STEPHANE 03:21:54 SEM M 93 SEM 480
153 TECHER emmanuel 03:21:57 V1M M 32 V1M 109
154 JACQUIN MARC 03:21:59 SEM M 94 SEM 578
155 HOARAU MICHEL JEAN BERNARD 03:22:49 V2M M 14 V2M 300
156 MORVAN JEAN MICHEL 03:23:02 V2M CASL M 15 V2M 232
157 DE LAUNAY Eric 03:23:07 SEM M 95 SEM 331
158 VIRAMOUTOU SERGE 03:23:09 V1M CTBP M 33 V1M 291
159 CANAUD Jerome 03:23:26 V1M AC ST LEU M 34 V1M 680
160 ATMANI MICHAEL 03:24:33 SEM M 96 SEM 498
161 PICQUE Bertrand 03:25:05 SEM M 97 SEM 374
162 BOYER DAVID 03:25:11 SEM M 98 SEM 515
163 BLANCA serge 03:25:35 V1M M 35 V1M 186
164 LOUVEL Bertrand 03:26:11 SEM M 99 SEM 423
165 BEGUE Eddy 03:26:12 V2M M 16 V2M 700
166 MOREL clarine 03:26:33 SEF F 7 F - 5 SEF 314
167 TURPIN Fritz Bruno 03:26:45 V1M M 36 V1M 215
168 FAVARIO Nicolas 03:26:53 SEM M 100 SEM 14
169 PAYET Alex 03:27:07 V1M M 37 V1M 713
170 DREUX Alexis 03:27:20 SEM M 101 SEM 194
171 LAIKON Desire 03:27:23 SEM M 102 SEM 717
172 VENEROSY Jonathan 03:27:25 SEM M 103 SEM 129
173 DURIF FLORENT 03:27:35 SEM M 104 SEM 544
174 RIVIERE YANNICK 03:27:38 V1M M 38 V1M 631
175 AMMANY Marie Claire 03:27:41 V1F F 8 F - 2 V1F 265
176 JEULAND HE CUN 03:27:43 SEF F 9 F - 6 SEF 579
177 SEVERIN jean jonathan 03:27:51 SEM M 105 SEM 491
178 SANTUCCI cedric 03:27:57 SEM M 106 SEM 268
179 DALLEAU Wilfried 03:28:05 SEM M 107 SEM 122
180 PAYET FABRICE 03:28:19 V2M CAPOSS M 17 V2M 76
181 DE TREMEUGE Alexis 03:29:10 SEM M 108 SEM 193
182 PAYET PHILIPPE 03:29:17 SEM M 109 SEM 91
183 OGNARD fabrice noel 03:29:18 V1M M 39 V1M 479
184 GABENESCH MATTHIEU 03:29:58 SEM M 110 SEM 398
185 GUILLER NICOLAS 03:30:27 SEM M 111 SEM 565
186 HOARAU MAURICE 03:30:37 V2M M 18 V2M 572
187 NAUTON QUENTIN 03:31:36 SEM AC ENTENTE M 112 SEM 273
188 CARDIET Mathieu 03:31:42 ESM M 5 ESM 201
189 BOYER ERIC HUGUES 03:31:45 V2M M 19 V2M 170
190 YERLY SIMON 03:31:57 SEM M 113 SEM 660
191 CHAHBAZIAN Stephane 03:32:10 SEM M 114 SEM 683
192 LORION BRUNO 03:32:14 V1M M 40 V1M 603
193 DIJOUX Francois 03:32:15 V2M M 20 V2M 48
194 LETOURNEUR dimitri 03:32:17 V1M M 41 V1M 395
195 PETIT Arnaud 03:32:22 SEM M 115 SEM 256
196 LAGOURDE Alexandre 03:32:31 V1M M 42 V1M 679
197 JOUSSERAND EDDY 03:32:44 SEM M 116 SEM 581
198 DE PINDRAY KARL 03:33:32 V2M M 21 V2M 533
199 SMITH J YANNIS 03:33:48 SEM M 117 SEM 641
200 MUSSARD nicolas 03:33:53 SEM M 118 SEM 209
201 FIGUERAS Benjamin 03:33:56 SEM M 119 SEM 157
202 RIPAULT YANN 03:34:06 V1M M 43 V1M 630
203 BRETON JOFFREY 03:34:12 V1M M 44 V1M 517
204 OUVRARD FABRICE 03:34:27 V1M M 45 V1M 168
205 CUVELIER JOANE 03:34:41 V1M M 46 V1M 439
206 CLAPIER Henri 03:34:46 V2M M 22 V2M 138
207 DAVRY ROMAIN CHRISTIA 03:35:05 SEM DENIV M 120 SEM 86
208 DIJOUX remi 03:35:27 SEM M 121 SEM 197
209 BUCHOU Geoffrey 03:35:28 SEM M 122 SEM 392
210 BARBIN FREDERIC 03:35:28 V2M M 23 V2M 502
211 GOURDEL Thomas 03:35:40 SEM M 123 SEM 190
212 DOBARIA PATRICE 03:35:51 SEM M 124 SEM 218
213 LAGOURDE Laurent 03:36:38 V1M M 47 V1M 676
214 MORIN jean marc 03:37:09 V4M M 1 V4M 492
215 RAVASI Christophe 03:37:50 SEM M 125 SEM 353
216 HOARAU JEAN MARIE 03:37:52 V2M M 24 V2M 570
217 BONNABAUD Maelle 03:38:21 SEF F 10 F - 7 SEF 89
218 REBOULE GUYTO 03:38:30 V2M M 25 V2M 211
219 MOHAMED Assani 03:38:31 SEM M 126 SEM 172
220 PAYET Olivier 03:38:49 SEM M 127 SEM 419
221 FONLUPT STEPHANIE 03:38:55 V1F DENIV F 11 F - 3 V1F 350
222 DORLA Alix 03:39:12 V1M M 48 V1M 276
223 BEGUE MICKAEL 03:39:19 SEM DSA M 128 SEM 137
224 DAMOUR ARNAUD 03:39:32 SEM OUESTRAIL M 129 SEM 181
225 LUCAS Frederic 03:39:41 SEM M 130 SEM 308
226 LIN VINCENT 03:39:42 SEM DSA M 131 SEM 166
227 HOARAU jean max 03:39:48 V2M M 26 V2M 483
228 LESQUELIN Yohan 03:39:55 SEM M 132 SEM 435
229 VESSIOT thomas 03:39:55 SEM M 133 SEM 196
230 BLANCARD MICKAEL JEAN ERIC 03:40:01 V1M M 49 V1M 446
231 MERLO FABIEN 03:40:01 SEM M 134 SEM 184
232 FLECHE Lucas 03:40:03 SEM M 135 SEM 123
233 COSTA JEAN PHILIPPE 03:40:28 V1M M 50 V1M 530
234 PALAGONIA Alexandre 03:40:28 SEM M 136 SEM 417
235 DESRUISSEAUX frederic 03:40:37 SEM M 137 SEM 171
236 DUNCAN Anita 03:40:37 SEF F 12 F - 8 SEF 198
237 KLEIN JOSETTE 03:40:54 V2F ACSTB F 13 F - 1 V2F 81
238 AURE PATRICK 03:41:07 V2M OUESTRAIL M 27 V2M 79
239 BELLUNE Yohann 03:41:17 SEM M 138 SEM 323
240 CERVEAUX Damien 03:41:22 SEM M 139 SEM 723
241 MASSON JEROME 03:41:30 SEM M 140 SEM 269
242 DELAUNAY JUSTINE 03:41:59 SEF F 14 F - 9 SEF 535
243 DROUT Alain 03:42:02 V1M M 51 V1M 695
244 HOAREAU JEAN JACKY 03:42:27 V2M M 28 V2M 573
245 AUGE David 03:43:27 V1M M 52 V1M 222
246 LAURET Max 03:43:28 SEM M 141 SEM 727
247 SIRGUEY marion 03:43:40 SEF F 15 F - 10 SEF 319
248 DELSART FREDERIC 03:43:43 SEM M 142 SEM 538
249 ARGOUD Florian 03:43:43 SEM M 143 SEM 711
250 ETHEVE THIERRY 03:43:59 V1M M 53 V1M 325
251 LEE SONG YIN SONIA 03:44:04 V1F DENIV F 16 F - 4 V1F 216
252 LAVOGEZ oriane 03:44:04 SEF F 17 F - 11 SEF 401
253 LIM SU KWAI STEPHANE 03:44:08 SEM AC ENTENTE M 144 SEM 309
254 OLIVAR JEAN FRANCOIS MICKAEL 03:44:28 SEM M 145 SEM 13
255 DIJOUX DANIEL 03:45:00 V2M M 29 V2M 476
256 GUAZZONE LEBON CHRISTINE 03:45:11 SEF DA F 18 F - 12 SEF 119
257 DESILVE Lucas 03:45:20 JUM M 5 JUM 429
258 FEUVRAIS AURELIEN 03:45:21 SEM M 146 SEM 200
259 PLATAUX BENJAMIN 03:45:30 SEM M 147 SEM 343
260 GONTHIER Giovani 03:45:42 JUM M 6 JUM 707
261 DE LA HOGUE Bernard 03:45:53 V2M M 30 V2M 213
262 DIOT JEAN MICHEL 03:45:57 V2M M 31 V2M 298
263 HOAREAU Serge 03:45:58 V1M M 54 V1M 251
264 HOAREAU JEAN YVES 03:45:59 V1M M 55 V1M 302
265 GIDEL JULIEN 03:46:00 SEM COSPI M 148 SEM 370
266 TEYSSEDRE Margaux 03:46:13 SEF F 19 F - 13 SEF 206
267 LEBON Ludovic 03:46:31 SEM M 149 SEM 295
268 NATIVEL PIERRE 03:46:50 SEM CAPOSS M 150 SEM 425
269 DEURVEILHER laurent 03:47:09 V1M M 56 V1M 147
270 MALET Daniel 03:47:36 SEM M 151 SEM 132
271 PERRIN Gilbert 03:47:40 SEM M 152 SEM 133
272 SMITH JEROME 03:47:58 SEM CAPC M 153 SEM 231
273 BLARD Jean Fred 03:47:59 V1M M 57 V1M 376
274 ALMAS Roger 03:48:00 V1M M 58 V1M 217
275 BASQUAISE sophie 03:48:01 V1F F 20 F - 5 V1F 338
276 ZETTOR yohann 03:48:19 SEM M 154 SEM 486
277 CLARAC Benjamin 03:48:22 SEM M 155 SEM 368
278 DUFAU Gautier 03:48:29 SEM M 156 SEM 424
279 RABEUX Aurelien 03:48:46 SEM M 157 SEM 192
280 ATTIAVE JOSEPH MERYL 03:48:58 SEM ACM M 158 SEM 10
281 FERRERE Eric 03:49:08 SEM M 159 SEM 65
282 LE TIRANT DIDIER 03:49:28 V2M M 32 V2M 591
283 FONTAINE Gilles 03:49:37 V1M M 59 V1M 696
284 AUCOURT Yohann 03:49:46 SEM M 160 SEM 177
285 LEBIAN JEAN PIERRE 03:50:06 V2M CAPP M 33 V2M 593
286 LEBIAN PAULETTE 03:50:06 V2F CAPP F 21 F - 2 V2F 594
287 CARO dominique 03:50:22 V1M M 60 V1M 411
288 BASSONVILLE gilbert 03:51:00 V1M M 61 V1M 482
289 KLEFFER YVES 03:51:06 V1M M 62 V1M 478
290 ETHEVE SAMUEL 03:51:10 V1M M 63 V1M 387
291 BRUNIQUET Anthony 03:51:29 ESM M 6 ESM 95
292 FONTAINE Alfredo 03:51:36 SEM M 161 SEM 691
293 ABCARDY GERALD 03:51:41 V1M ADISS M 64 V1M 468
294 GUIGNARD ROMAIN 03:51:55 SEM M 162 SEM 564
295 DALELE JEAN MARC 03:52:02 V1M M 65 V1M 169
296 LEBARBENCHON Camille 03:52:15 SEM M 163 SEM 355
297 ALLO MYRIAM 03:52:16 SEF F 22 F - 14 SEF 496
298 QUEFFELEC Mickala 03:52:48 V1F F 23 F - 6 V1F 689
299 PELE Florent 03:52:50 SEM M 164 SEM 272
300 DELAUNAY DIMITRI 03:53:09 SEM M 165 SEM 282
301 CLAIN Antoine Giovanny 03:53:11 V1M M 66 V1M 403
302 LEFEBVRE Sylvain 03:53:30 SEM M 166 SEM 99
303 HOARAU flavio 03:53:42 SEM M 167 SEM 83
304 MINIAMA MARIE LAURE 03:54:27 SEF F 24 F - 15 SEF 317
305 MINIAMA JEAN SEBASTIEN 03:54:28 V1M M 67 V1M 318
306 FONTAINE guibert 03:54:51 V2M M 34 V2M 164
307 NICOLAS VINCENT 03:54:53 SEM M 168 SEM 619
308 AMILY Jessica 03:55:18 SEF F 25 F - 16 SEF 352
309 LEFEBVRE THIERRY 03:55:20 V1M M 68 V1M 596
310 KORICHI Fares 03:55:39 V1M M 69 V1M 703
311 SOUBAYA Lionnel 03:55:39 SEM M 169 SEM 140
312 EUVRARD Coralie 03:55:58 SEF F 26 F - 17 SEF 205
313 CELESTE HENRI 03:56:00 V2M M 35 V2M 522
314 ROBERT ROGER 03:56:00 V3M M 2 V3M 49
315 HOARAU mickael 03:56:10 V1M M 70 V1M 481
316 AUGIZEAU Julien 03:56:25 SEM M 170 SEM 704
317 METSCHIES Julien 03:56:54 SEM M 171 SEM 12
318 LOTOUT mylene 03:56:56 SEF F 27 F - 18 SEF 208
319 BADIN KEVIN 03:56:57 SEM M 172 SEM 501
320 BOULBARD Noemie 03:57:19 SEF F 28 F - 19 SEF 189
321 LARUE SIMON 03:57:26 SEM M 173 SEM 589
322 JEST Arthur 03:57:27 SEM M 174 SEM 185
323 PAYET Fabrice 03:57:31 SEM M 175 SEM 722
324 SCANDELLA aimeric 03:57:52 SEM M 176 SEM 156
325 TONDEUR vincent 03:57:53 V1M M 71 V1M 155
326 CERVEAU SANDRA 03:58:37 V1F DENIV F 29 F - 7 V1F 159
327 PARADIVIN Christophe 03:58:58 SEM M 177 SEM 715
328 CASIMIR MATHIEU 03:59:02 SEM CTBP M 178 SEM 428
329 BROUESSARD GUILLAUME 03:59:15 SEM M 179 SEM 518
330 LALLEMAND Michel 03:59:19 SEM M 180 SEM 142
331 LABERTRANDIE Anais 03:59:20 SEF F 30 F - 20 SEF 71
332 TOSSAM guy noel 03:59:21 SEM M 181 SEM 247
333 NICOLAS Quentin 03:59:53 ESM M 7 ESM 378
334 NAZARRE LAURE 04:00:07 SEF F 31 F - 21 SEF 617
335 JOYEAUX MAXIME 04:00:26 SEM M 182 SEM 582
336 LIEUTENANT Audrey 04:00:36 SEF F 32 F - 22 SEF 315
337 AUBERT Olivier 04:00:36 V1M M 72 V1M 316
338 PITOU jeremy 04:00:38 SEM M 183 SEM 32
339 BARON Benoit 04:00:49 SEM M 184 SEM 281
340 PAYET murielle 04:01:00 SEF F 33 F - 23 SEF 406
341 FONTAINE Bruno 04:01:11 V2M M 36 V2M 130
342 PICARD FABIEN 04:01:13 SEM M 185 SEM 360
343 BOUAZIZ Medi 04:01:30 SEM M 186 SEM 236
344 FAIT CHARLES ANTOINE 04:01:54 SEM CALS SUD M 187 SEM 548
345 GRONDIN CEDRIC 04:02:48 V1M M 73 V1M 561
346 SADON Antoine 04:02:56 V2M M 37 V2M 694
347 ETASSE FREDERIC 04:03:03 V1M M 74 V1M 546
348 K/BIDI Joselito 04:03:08 V1M M 75 V1M 154
349 LAPORTE Marion 04:03:18 SEF F 34 F - 24 SEF 127
350 SEGRET Nicolas 04:03:49 SEM M 188 SEM 114
351 BOUTET SUZETTE 04:03:57 V2F DENIV F 35 F - 3 V2F 414
352 GAUTHIER ADRIEN 04:04:05 V1M DSA M 76 V1M 36
353 AUBRY Mathieu 04:04:25 SEM M 189 SEM 358
354 RAMAYE freddy 04:04:49 V1M M 77 V1M 160
355 LIST GUNGOOSINGH CATHERINE 04:04:53 V2F COSPI F 36 F - 4 V2F 34
356 PAYET Dominique 04:05:06 V2M M 38 V2M 675
357 JURICIC Nathanael 04:05:10 V1M M 78 V1M 258
358 DEURWEILHER manuela 04:05:13 SEF F 37 F - 25 SEF 359
359 KICHENIN AYMERICK 04:05:21 SEM M 190 SEM 45
360 ROCHEFEUILLE Veronique 04:05:29 SEF F 38 F - 26 SEF 226
361 JOURDAN pauline 04:05:29 SEF F 39 F - 27 SEF 225
362 TONNEAU DELPHINE 04:05:32 SEF F 40 F - 28 SEF 648
363 METZGER Frederic 04:05:57 V1M M 79 V1M 255
364 ADELER Jean Luc 04:05:57 V2M M 39 V2M 320
365 FOLIO OLIVIER 04:06:02 SEM M 191 SEM 233
366 MEVEL NATHALIE 04:06:09 V2F F 41 F - 5 V2F 443
367 MINARDI JULIE 04:06:18 SEF F 42 F - 29 SEF 609
368 DUCARME TIFFANY 04:06:22 SEF F 43 F - 30 SEF 543
369 ROBERT LOUIS 04:06:52 V3M M 3 V3M 633
370 CHABOT STEPHANE 04:07:42 SEM M 192 SEM 328
371 PEYEN Loic 04:07:52 SEM M 193 SEM 324
372 MORIN LAURA 04:07:54 SEF F 44 F - 31 SEF 613
373 PESCE ARNAUD 04:07:57 V1M M 80 V1M 624
374 VIALLE PIERRE ALEXANDRE 04:08:03 SEM M 194 SEM 657
375 MEZINO FREDERIC 04:08:43 V1M M 81 V1M 454
376 BOUESSAY CEDRIC 04:08:57 SEM M 195 SEM 212
377 BEJANIN STEPHANE 04:09:07 SEM M 196 SEM 506
378 RABOIS GINA 04:09:11 V2F ACBP F 45 F - 6 V2F 627
379 GOMEZ STEPHANE 04:09:12 V1M M 82 V1M 559
380 POTIEZ Aurelia 04:09:45 SEF F 46 F - 32 SEF 52
381 GANGAMA kevin 04:09:46 SEM M 197 SEM 297
382 THeRON Sebastien 04:09:54 V1M M 83 V1M 306
383 POLLUX Ludovic 04:10:00 SEM ACSAL M 198 SEM 456
384 DALLEAU Alexandre 04:10:02 SEM M 199 SEM 384
385 MeLIN Nicolas 04:10:05 SEM M 200 SEM 125
386 DIJOUX Teddy 04:10:08 SEM M 201 SEM 37
387 SALEM Laurent 04:10:12 SEM M 202 SEM 271
388 SAPIN PIERRE HENRI 04:10:19 V1M M 84 V1M 88
389 LAMOLY JEAN CLAUDE 04:10:29 V3M M 4 V3M 587
390 CLAIN Laurent 04:10:50 SEM M 203 SEM 262
391 LEWIS CHARLY 04:10:55 SEM M 204 SEM 602
392 K BIDI JEREMIE 04:10:58 SEM M 205 SEM 583
393 PAYET Dominique 04:11:06 SEM M 206 SEM 101
394 LEGENDRE SOLENE 04:11:08 SEF F 47 F - 33 SEF 598
395 GERVILLE bernard 04:11:32 SEM M 207 SEM 288
396 ROLDAN Laurent 04:11:59 V1M M 85 V1M 366
397 AUBERVAL MIKAEL 04:12:04 V1M M 86 V1M 385
398 VIRGINIUS IRENE 04:12:17 V2M ACBP M 40 V2M 658
399 DALLEAU jimmy 04:12:24 V2M M 41 V2M 69
400 POUDROUX Melanie 04:12:29 V2F F 48 F - 7 V2F 408
401 POUDROUX Gerard 04:12:29 V2M M 42 V2M 410
402 LEGROS PASCAL 04:12:30 V2M RUN'A M 43 V2M 409
403 MONTGOBERT QUENTIN 04:12:31 SEM M 208 SEM 612
404 TAMBOURIN Mathieu 04:12:33 SEM M 209 SEM 195
405 PAYET Gerald 04:12:35 SEM M 210 SEM 243
406 LEZY MELANIE 04:12:50 SEF DENIV F 49 F - 34 SEF 87
407 CLAIRIVET PIERRE 04:12:57 SEM M 211 SEM 470
408 BONNEAU ADRIEN 04:13:17 SEM M 212 SEM 46
409 LAGOURDE FRANCOIS 04:13:18 V1M M 87 V1M 340
410 EUPHRASIE Jean Pierre 04:13:18 V1M M 88 V1M 712
411 MAZEAU Ludovic 04:13:43 V2M M 44 V2M 665
412 HAMELIN franck 04:14:07 V1M M 89 V1M 150
413 HOMATTER CELINE 04:14:26 SEF F 50 F - 35 SEF 574
414 TURPIN MICHEL 04:14:48 SEM M 213 SEM 652
415 HONORINE CLARA 04:14:49 V1F F 51 F - 8 V1F 575
416 PRAYA DAMIEN 04:15:13 SEM M 214 SEM 240
417 CAROUMBAYE LINDA 04:15:41 V1F STASA F 52 F - 9 V1F 459
418 TORNEY thomas 04:15:51 SEM M 215 SEM 117
419 COLTER LILIAN 04:16:13 V1M M 90 V1M 529
420 BEJANIN ANNE SOPHIE 04:16:15 SEF F 53 F - 36 SEF 507
421 ROCCA adrien 04:16:31 SEM M 216 SEM 310
422 TAMIL marie Gladys 04:16:37 V1F F 54 F - 10 V1F 280
423 SINAPAN LAURENT 04:16:39 SEM M 217 SEM 640
424 POURTAU Julien 04:16:41 SEM M 218 SEM 375
425 IP WO HING DAVID 04:16:50 V1M M 91 V1M 576
426 DUBARD CLEMENT 04:17:38 V3M M 5 V3M 542
427 BOUMAZA YANNICK 04:18:05 V2M M 45 V2M 513
428 FARCOT Camille 04:18:07 ESF F 55 F - 2 ESF 53
429 FONTAINE Laurent 04:18:10 V1M M 92 V1M 438
430 VOLTIGE YANNIS 04:18:23 SEM M 219 SEM 128
431 LACUGUE MAGALI 04:18:40 SEF F 56 F - 37 SEF 585
432 DONZ Jeremy 04:18:50 SEM M 220 SEM 263
433 JAMS Gerome 04:19:05 SEM M 221 SEM 702
434 DELVO LAMBERT JOSETTE 04:19:15 V1F DSA F 57 F - 11 V1F 391
435 LOYER CYRILLE 04:19:17 SEM M 222 SEM 54
436 BALZANET SANDRA 04:19:21 V1F F 58 F - 12 V1F 452
437 RAMIN luciano 04:19:28 V1M M 93 V1M 484
438 CLAVERY PHILIPPE 04:19:32 V3M M 6 V3M 525
439 GUINDE PASCAL 04:20:22 V1M M 94 V1M 362
440 FORT matthieu 04:20:53 SEM M 223 SEM 489
441 VIADERE MAX 04:21:09 V2M M 46 V2M 656
442 SAIB amelie 04:21:35 SEF F 59 F - 38 SEF 163
443 THOUENON VINCENT 04:21:41 SEM M 224 SEM 647
444 EDMOND CONSTANTIN 04:21:42 V1M M 95 V1M 462
445 SEUBILLE RENAN 04:21:43 SEM M 225 SEM 639
446 TACK OLIVIER 04:22:00 V1M M 96 V1M 643
447 MINATCHY Chimene 04:22:13 JUF F 60 F - 1 JUF 270
448 FURIA Jean Delbard 04:22:18 SEM M 226 SEM 24
449 LE ROUX bertrand 04:22:25 V1M M 97 V1M 43
450 GANGNANT ERICK 04:22:30 V1M RCSD M 98 V1M 33
451 LESCAT MARIE 04:22:32 V1F F 61 F - 13 V1F 242
452 SADON BERTRAND 04:22:35 SEM M 227 SEM 635
453 HACH CLAIRE 04:22:39 SEF F 62 F - 39 SEF 566
454 GROSSET DAVID 04:22:52 SEM CAPOSS M 228 SEM 393
455 PRADIER LAURENT 04:22:57 SEM RUN'A M 229 SEM 626
456 HOARAU Pierrot 04:22:58 V1M M 99 V1M 51
457 FULMAR Gerard 04:23:01 SEM M 230 SEM 29
458 PETIT BRUNO 04:23:32 SEM M 231 SEM 625
459 LEFRANCOIS Morgane 04:23:41 SEF F 63 F - 40 SEF 307
460 BOUDARD MATHILDE 04:23:41 SEF F 64 F - 41 SEF 511
461 LOMBARD quentin 04:23:42 SEM M 232 SEM 335
462 SAINT AGNAN roberto 04:23:45 SEM M 233 SEM 135
463 MORISCOT CHRISTINE 04:23:57 V2F CALS SUD F 65 F - 8 V2F 4
464 NATIVEL Tanguy 04:24:14 V1F F 66 F - 14 V1F 692
465 DIJOUX MARIE SABRINA 04:25:01 SEF F 67 F - 42 SEF 539
466 ARAGOT ERIKA 04:25:39 SEF CALS SUD F 68 F - 43 SEF 334
467 ROBERT nathalie 04:25:44 SEF F 69 F - 44 SEF 19
468 LESQUELIN Yannick 04:26:02 SEM M 234 SEM 381
469 THIMON thomas 04:26:05 SEM M 235 SEM 144
470 LE CARBOULLEC STEPHANE 04:27:03 V1M ESCDLM M 100 V1M 38
471 VIRAMA JULIEN 04:27:03 SEM M 236 SEM 210
472 HOULLIER ERIC 04:27:17 V2M RAIDERS M 47 V2M 296
473 VANDERBECKEN Virginie 04:27:17 V2F F 70 F - 9 V2F 299
474 AUBRY MICKEL 04:27:40 SEM M 237 SEM 434
475 DAUBIGNEY Jeremie 04:27:40 SEM M 238 SEM 397
476 FONTAINE DIDIER 04:27:41 V1M M 101 V1M 554
477 TAiDE Philippe 04:27:44 V2M M 48 V2M 402
478 JOUEN AMANDINE 04:28:19 SEF F 70 F - 45 SEF 580
479 ROBERT Jean Christian 04:28:22 V2M CAPP M 49 V2M 463
480 PISCIONE Eric 04:28:40 V2M M 50 V2M 708
480 DELNARD DOMINIQUE 04:28:41 V2M M 51 V2M 536
481 GODERON BETTY 04:28:46 SEF F 71 F - 46 SEF 457
482 DELAHOGUE Pierre 04:29:25 ESM M 8 ESM 433
483 LE ROY Anais 04:29:28 SEF F 72 F - 47 SEF 275
484 HOAREAU patrick fredo 04:29:53 V1M M 102 V1M 311
485 MAILLOT daniel 04:29:58 V2M M 52 V2M 460
486 CHAREL CAROLINE 04:30:10 SEF OUESTRAIL F 73 F - 48 SEF 523
487 LAVEAUD Aymeric 04:30:33 SEM M 239 SEM 5
488 FRUTEAU DE LACLOS Joseph 04:31:02 SEM M 240 SEM 329
489 PAYET Christophe 04:31:10 SEM M 241 SEM 102
490 DORO FREDERIC 04:31:10 SEM M 242 SEM 541
491 BABET Philippe 04:31:42 V3M M 7 V3M 183
492 BURGLIN STEPHANIE 04:32:00 SEF F 74 F - 49 SEF 74
493 CLERVAL Pierre 04:32:07 SEM M 243 SEM 77
494 CLERVAL armelle 04:32:08 SEF F 75 F - 50 SEF 173
495 DRULE Jean Emmanuel 04:32:08 V1M M 103 V1M 666
496 CARIAN Monique 04:32:16 V2F F 76 F - 9 V2F 252
497 CHANRION Sandra 04:32:53 SEF F 77 F - 51 SEF 673
498 TANA GAUTIER 04:32:57 SEM M 244 SEM 644
499 PAYET Josie 04:33:11 V1F F 78 F - 15 V1F 674
500 BASSON STEPHANE 04:33:13 SEM M 245 SEM 464
501 HOARAU Matthieu Gabriel 04:33:30 SEM M 246 SEM 379
502 LECLERC LUDOVIC 04:33:31 V1M M 104 V1M 182
503 BOUTARD KEVIN 04:33:46 SEM M 247 SEM 514
504 LOYER Sebastien 04:34:07 V1M M 105 V1M 16
505 DELPHINE LEONEL 04:34:15 V4M M 2 V4M 537
506 SUTTER PATRICE 04:34:15 V1M M 106 V1M 39
507 CADET OLIVIER 04:34:26 V1M DENIV M 107 V1M 126
508 PICARD TURPIN Frederic 04:34:42 SEM M 248 SEM 1
509 GRENIER BALISTE Rachel 04:35:00 SEF F 79 F - 52 SEF 499
510 LOBJOY Celine 04:35:03 SEF F 80 F - 53 SEF 688
511 ARMOUGOM VAYERATTA Thierry 04:35:28 SEM M 249 SEM 416
512 TERRIER Charlotte 04:35:30 SEF F 81 F - 54 SEF 725
513 BIGOT MATHILDE 04:35:57 SEF F 82 F - 55 SEF 267
514 BOURSERIE ALEXANDRE 04:35:58 SEM M 250 SEM 266
515 JALOUX Leocadie 04:35:58 SEF F 83 F - 56 SEF 178
516 BOUCHER Dominique 04:36:32 SEM M 251 SEM 199
517 LABOUREUR ESTELLE 04:36:53 SEF F 84 F - 57 SEF 584
518 CHILLET MARC 04:36:54 V2M M 53 V2M 524
519 YEBO MARIE ALANDA 04:37:48 V1F COSPI F 85 F - 16 V1F 659
520 PAYET Sylvain Anthony 04:38:25 SEM M 252 SEM 430
521 OUGOUROUSSIVA LILIAN 04:38:25 V2M M 54 V2M 621
522 MAILLOT jean miguel 04:38:30 SEM M 253 SEM 286
523 ERUDEL LOIC 04:38:41 SEM M 254 SEM 545
524 SMITH Jonathan 04:39:00 SEM M 255 SEM 223
525 FONTAINE Joel 04:39:34 V1M M 108 V1M 107
526 LAMOLY EULALIE 04:39:45 V3F F 86 F - 1 V3F 586
527 ISSA Fayyaaz 04:39:55 SEM M 256 SEM 431
528 DESMARCHELIER Sabine 04:40:22 V2F F 87 F - 10 V2F 354
529 BISET STEPHANE 04:40:42 V1M M 109 V1M 510
530 SCHOCH STEPHANE 04:40:42 V1M M 110 V1M 637
531 RUBIO VANESSA 04:40:43 V1F AC ST LEU F 88 F - 17 V1F 364
532 BOLEIS aude 04:41:00 SEF F 89 F - 58 SEF 301
533 FERNANDEZ NICOLAS 04:41:31 SEM M 257 SEM 550
534 LEBON Gitane 04:41:52 V1F F 90 F - 18 V1F 220
535 RIVIeRE Frederique 04:41:52 V1F F 91 F - 19 V1F 219
536 ABRADOR georges 04:42:06 V3M M 8 V3M 235
537 LOMBARD Damien 04:42:22 SEM M 258 SEM 346
538 BASSAC philippe 04:42:23 V2M M 55 V2M 303
539 ANTAYA Jimmy 04:43:05 V1M M 111 V1M 248
540 RIGAUD PAUL 04:43:57 V1M AC ST LEU M 112 V1M 230
541 TAVENARD MARIE 04:44:15 SEF F 92 F - 59 SEF 645
542 CLAVERY SYLVIE 04:44:42 V3F F 93 F - 2 V3F 526
543 LE MAO Malika 04:44:43 SEF F 94 F - 60 SEF 313
544 POISSEMEUX Lenaig 04:44:53 SEF F 95 F - 61 SEF 234
545 FONTAINE AURELIEN 04:45:52 SEM M 259 SEM 552
546 MARBLE YVANE 04:46:13 SEF F 96 F - 62 SEF 607
547 BOUDET Xavier 04:46:17 SEM M 260 SEM 690
548 VERCHIN JEAN MARC 04:46:20 V2M CASL M 56 V2M 655
549 PONTALBA Fidelio 04:46:26 V2M M 57 V2M 31
550 JACQUES MELINDA 04:46:45 V1F F 97 F - 20 V1F 577
551 PERRON Marion 04:46:49 SEF F 98 F - 63 SEF 671
552 BEDANI EMILIE 04:48:20 SEF ACSP F 99 F - 64 SEF 504
553 PAYET Samantha 04:48:37 SEF F 100 F - 65 SEF 112
554 GeRoME Caroline 04:48:48 SEF F 101 F - 66 SEF 312
555 CASTRO RAMOS YAIZA 04:49:00 SEF F 102 F - 67 SEF 521
556 CASANOVA ARNAUD 04:49:00 SEM M 261 SEM 520
557 GARCIA mathieu 04:49:04 V1M M 113 V1M 25
558 TESSIER Christian 04:49:05 V2M M 58 V2M 304
559 LANTIN GAELLE 04:49:13 V1F F 103 F - 21 V1F 588
560 GRONDIN josie 04:50:10 V1F F 104 F - 22 V1F 145
561 COLBALCHINI Martine 04:50:26 V3F F 105 F - 3 V3F 93
562 SAM CAW FREVE Stephane 04:50:53 SEM M 262 SEM 207
563 BOULANGER MARIE FLORENCE 04:51:08 V1F CAPP F 106 F - 23 V1F 512
564 MASSON GEORGES 04:51:16 V2M M 59 V2M 56
565 FAUSTIN MICHEL 04:51:27 V3M M 9 V3M 549
566 AJAGUIN Uders 04:51:49 SEM M 263 SEM 165
567 JEANNE ERIC 04:52:50 V2M M 60 V2M 427
568 LEPERLIER Sonny 04:52:54 V2M M 61 V2M 113
569 LEBON marie anyse 04:53:09 V2F F 107 F - 11 V2F 344
570 MURAT tatiana 04:54:00 SEF F 108 F - 68 SEF 41
571 GONTHIER Joelle 04:54:00 SEF F 109 F - 69 SEF 42
572 BLARD Jerome 04:54:43 V1M M 114 V1M 720
573 CReMONeSI Celine 04:54:44 SEF F 110 F - 70 SEF 369
574 GRONDIN Tatiana 04:54:55 SEF F 111 F - 71 SEF 66
575 LAUDE Etienne 04:57:05 ESM M 9 ESM 363
576 PAYET Alisson Samantha 04:57:16 SEF F 112 F - 72 SEF 698
577 GONTHIER Ingrid 04:57:16 SEF F 113 F - 73 SEF 697
578 GENTA VIRGINIE 04:58:26 SEF DENIV F 114 F - 74 SEF 108
579 FRITSCH STEPHANE 04:58:32 V1M M 115 V1M 420
580 HOARAU HERVE 04:58:58 SEM ADISS M 264 SEM 569
581 CHASSERAY thierry 04:59:01 V2M M 62 V2M 458
582 LEPERLIER Veronique 04:59:16 V1F F 115 F - 24 V1F 254
583 LEGARNISSON JEROME 04:59:17 SEM M 265 SEM 597
584 RAMDANE Betty 04:59:35 SEF F 116 F - 75 SEF 347
585 HAUSS JOEL 04:59:58 V3M RUN'A M 10 V3M 567
586 SAPIN dominique 05:00:14 V4M M 3 V4M 20
587 DEGAUDEZ THIERRY 05:00:21 V2M M 63 V2M 534
588 DANIEL MYRIAM 05:00:21 V1F F 117 F - 25 V1F 532
589 MPOTA Julien 05:00:26 SEM M 266 SEM 407
590 MASACAREL LAURENCE 05:01:21 V2F F 118 F - 12 V2F 453
591 AH NIEME JOCELYN 05:01:47 V4M M 4 V4M 495
592 MAZAROT julien 05:02:14 SEM M 267 SEM 104
593 GUEDJ Caroline 05:02:14 SEF F 119 F - 76 SEF 105
594 HOARAU Cindy 05:04:46 SEF F 120 F - 77 SEF 668
595 VALLIAME marie paule 05:05:03 V1F F 121 F - 26 V1F 377
596 ERACAMA Jonathan 05:06:21 SEM M 268 SEM 161
597 VOLTIGE Laurent 05:06:33 SEM M 269 SEM 244
598 MALET Christopher 05:06:58 SEM M 270 SEM 40
599 BERTOLOTTI MAXIME 05:07:45 SEM M 271 SEM 509
600 RIOUAL YANN 05:07:54 SEM M 272 SEM 629
601 COTTINEAU LUCIE 05:07:55 SEF F 122 F - 78 SEF 418
602 THOBY ivanne 05:07:55 SEF F 123 F - 79 SEF 339
603 PAYET Catherine 05:08:12 SEF F 124 F - 80 SEF 261
604 BONNEAU Cedric 05:09:45 SEM M 273 SEM 47
605 SCHNEEBELI STEPHANE 05:09:55 V3M CALS SUD M 11 V3M 292
606 RAMET ELODIE 05:10:31 SEF F 125 F - 81 SEF 628
607 PAYET Manuella 05:11:42 V1F F 126 F - 27 V1F 662
608 ABLANCOURT MARIE LISE 05:12:51 V3F CALS SUD F 127 F - 4 V3F 3
609 FERRO Isabelle 05:13:09 V1F F 128 F - 28 V1F 67
610 JARLET BENEDICTE 05:14:26 V2F CALS SUD F 129 F - 13 V2F 361
611 GERARD CHARLES HENRI 05:14:44 V3M M 12 V3M 556
612 BERTOLOTTI FRANCOISE 05:16:02 V3F F 130 F - 5 V3F 508
613 MORIN MARTINE 05:16:02 V3F F 131 F - 6 V3F 614
614 ANTAYA jean claude 05:16:11 V2M M 64 V2M 55
615 LEPINAY JIMMY 05:17:34 V1M M 116 V1M 599
616 YEBO EMMANUELLE 05:17:34 SEF COSPI F 132 F - 82 SEF 136
617 SEVERIN Johann Desire 05:19:22 SEM M 274 SEM 330
618 GUGLIELMACCI STEPHANE 05:20:06 V1F ACSP F 133 F - 29 V1F 17
619 BABO SANDRA 05:21:04 SEF F 134 F - 83 SEF 500
620 VANJY MARIE LINE 05:21:13 V1F F 135 F - 30 V1F 654
621 FELIX jocelyne 05:22:41 SEF F 136 F - 84 SEF 488
622 HINOUT FONTAINE Regine 05:22:41 SEF F 137 F - 85 SEF 238
623 ZIN Jamel 05:23:15 SEM M 275 SEM 131
624 MARTIN GERALDINE 05:23:58 V1F ADISS F 138 F - 31 V1F 73
625 HUGOU MARINE 05:23:58 SEF F 139 F - 86 SEF 287
626 NEAU STEPHANIE 05:25:03 SEF ACSP F 140 F - 87 SEF 98
627 GERARD CHRISTIAN 05:25:05 V2M M 65 V2M 557
628 ROBERT Marie 05:25:38 SEF F 141 F - 88 SEF 260
629 GASP MOSQUERA DOMINIQUE 05:25:47 V3F F 142 F - 7 V3F 555
630 LAURET GAELLE 05:26:19 SEF F 143 F - 89 SEF 590
631 TOUSSAINT Wilfrid 05:28:20 SEM M 276 SEM 701
632 SULA AURELIE 05:28:29 V1F ORT F 144 F - 32 V1F 642
633 GRAMET STEPHEN 05:30:49 SEM M 277 SEM 560
634 REBOUL SANDRINE 05:31:51 SEF ADISS F 145 F - 90 SEF 449
635 TSENG QUN AUDREY 05:32:14 ESF F 146 F - 3 ESF 650
636 TSENG QUN PATRICK 05:32:15 V2M M 66 V2M 651
637 MAILLOT MARIE LUCIE 05:32:30 SEF F 147 F - 91 SEF 606
638 MARTI LEA 05:33:43 SEF F 148 F - 92 SEF 608
639 BEAUGER MARINE 05:33:45 SEF F 149 F - 93 SEF 426
640 DIJOUX SAMUEL 05:36:46 SEM M 278 SEM 540
641 FONTAINE JULIE 05:39:20 SEF F 150 F - 94 SEF 149
642 LARDEUX benjamin 05:41:44 SEM M 279 SEM 436
643 HEDIN SYLVIE 05:43:47 V1F ADISS F 151 F - 33 V1F 342
644 ATIA charlemagne 05:43:47 V1M M 117 V1M 493
645 SINCERE Fabienne 05:48:35 V1F F 152 F - 34 V1F 661
646 VITRY Dany Florence 05:48:41 V1F F 153 F - 35 V1F 305
647 CUVELIER HUGO 05:54:57 ESM M 10 ESM 440
648 MONTROUGE VALERIE 06:01:30 V1F TCSA F 154 F - 36 V1F 80
649 MAREE Soane 06:04:43 ESM M 11 ESM 718
650 RENAUD SARAH 06:06:31 SEF F 155 F - 95 SEF 50
651 RAFEL Herve 06:22:21 SEM M 280 SEM 94
652 DABEE mahendrasingh 06:23:07 V3M M 13 V3M 373
653 PORRINI DAVID 06:45:20 V1M M 118 V1M 461
654 FONTAINE DANIEL 06:45:29 V3M COSPI M 14 V3M 202
655 LUCAS MYRIAM YOLANDE 06:45:29 V2F F 156 F - 14 V2F 239


ReferencementCe site est listé dans la catégorie Sport : Sports extrêmes Dictionnaire
| Accueil | La Réunion  Vue du ciel | Météo | Cyclones | Volcan | Cirques de Mafate , Cilaos , Salazie | Photos Randonnées | Randonnées Réunion: Randos Espiègle , Courses montagne | Diagonale des Fous |  Marathon des Sables | Voyages Les stats du site | Fonds écran | Plan du site | Blog de runraid | Galerie photos Sport Réunion |